Weather History for Rogers City, MI

Change the Weather History Date:

Saturday, March 22, 2014

  Actual Average (KAPN) Record (KAPN)
Temperature  
Mean Temperature 20 °F 31 °F  
Max Temperature 30 °F 41 °F 79 °F (1938)
Min Temperature 10 °F 21 °F -9 °F (1989)
Degree Days  
Heating Degree Days 45 34  
Month to date heating degree days 836  
Since 1 July heating degree days 6568  
Cooling Degree Days 0 0  
Month to date cooling degree days 0  
Year to date cooling degree days 0  
Moisture  
Dew Point 18 °F    
Average Humidity 79    
Maximum Humidity 96    
Minimum Humidity 57    
Precipitation  
Precipitation 0.00 in 0.07 in 0.60 in (1955)
Month to date precipitation 1.28  
Year to date precipitation 4.26  
Snow  
Snow 0.00 in 0.30 in 4.30 in (1972)
Month to date snowfall 9.4  
Since 1 July snowfall 75.5  
Snow Depth -    
Sea Level Pressure  
Sea Level Pressure 30.00 in    
Wind  
Wind Speed 8 mph (NW)    
Max Wind Speed 18 mph    
Max Gust Speed 28 mph    
Visibility 9 miles    
Events Snow    
T = Trace of Precipitation, MM = Missing Value Source: NWS Daily Summary

Daily Weather History Graph

Daily Weather History Graph

Search for Another Location

Airport:

Trip Planner

Search our weather history database for the weather conditions in past years. The results will help you decide how hot, cold, wet, or windy it might be!

Date:

Astronomy

Mar. 22, 2014 Rise Set
Actual Time 7:34 AM EDT 7:50 PM EDT
Civil Twilight 7:05 AM EDT 8:19 PM EDT
Nautical Twilight 6:30 AM EDT 8:54 PM EDT
Astronomical Twilight 5:54 AM EDT 9:30 PM EDT
Moon 1:22 AM EDT (3/22) 11:03 AM EDT (3/22)
Length of Visible Light 13h 14m
Length of Day
12h 15m
Waning Gibbous, 65% of the Moon is Illuminated
Mar 22
Waning Gibbous
Mar 23
Last Quarter
Mar 30
New
Apr 7
First Quarter
Apr 15
Full

Hourly Weather History & Observations

Time (EDT) Temp. Windchill Dew Point Humidity Pressure Visibility Wind Dir Wind Speed Gust Speed Precip Events Conditions
12:15 AM 28.4 °F 24.6 °F 25.0 °F 87% 29.82 in 1.8 mi ESE 3.5 mph - N/A Snow Light Snow
12:35 AM 27.5 °F 22.2 °F 25.7 °F 93% 29.81 in 2.5 mi SE 4.6 mph - N/A Snow Light Snow
12:54 AM 27.5 °F 22.2 °F 26.1 °F 94% 29.80 in 3.0 mi East 4.6 mph - N/A Snow Light Snow
1:15 AM 27.5 °F 23.6 °F 26.2 °F 95% 29.80 in 2.0 mi East 3.5 mph - N/A Snow Light Snow
1:34 AM 27.3 °F 23.4 °F 26.2 °F 96% 29.79 in 3.0 mi ENE 3.5 mph - N/A Snow Light Snow
1:54 AM 27.1 °F 23.2 °F 26.1 °F 96% 29.78 in 10.0 mi ENE 3.5 mph - N/A   Overcast
2:15 AM 27.3 °F 23.4 °F 26.2 °F 96% 29.78 in 10.0 mi East 3.5 mph - N/A Snow Light Snow
2:34 AM 27.1 °F 23.2 °F 26.1 °F 96% 29.78 in 10.0 mi East 3.5 mph - N/A   Overcast
2:54 AM 27.3 °F - 26.2 °F 96% 29.78 in 10.0 mi Calm Calm - N/A   Overcast
3:15 AM 27.5 °F - 26.4 °F 96% 29.79 in 10.0 mi Calm Calm - N/A Snow Light Snow
3:34 AM 27.5 °F 23.6 °F 26.4 °F 96% 29.78 in 5.0 mi North 3.5 mph - N/A Snow Light Snow
3:55 AM 27.0 °F 23.0 °F 25.7 °F 95% 29.78 in 5.0 mi North 3.5 mph - N/A Snow Light Snow
4:15 AM 27.5 °F - 26.6 °F 96% 29.79 in 7.0 mi Calm Calm - N/A Snow Light Snow
4:34 AM 27.9 °F 24.0 °F 26.6 °F 95% 29.79 in 10.0 mi NW 3.5 mph - N/A   Overcast
4:55 AM 27.5 °F - 26.4 °F 96% 29.80 in 10.0 mi Calm Calm - N/A   Overcast
5:14 AM 27.7 °F 21.3 °F 26.6 °F 96% 29.81 in 10.0 mi NW 5.8 mph - N/A   Overcast
5:34 AM 27.5 °F 20.2 °F 26.4 °F 96% 29.82 in 10.0 mi NW 6.9 mph - N/A   Overcast
5:55 AM 27.5 °F 20.2 °F 26.6 °F 96% 29.82 in 10.0 mi NNW 6.9 mph - N/A   Overcast
6:14 AM 27.1 °F 20.7 °F 26.1 °F 96% 29.83 in 10.0 mi NNW 5.8 mph - N/A   Overcast
6:34 AM 27.3 °F 19.1 °F 26.2 °F 96% 29.84 in 10.0 mi NW 8.1 mph - N/A   Overcast
6:55 AM 27.1 °F 18.9 °F 25.7 °F 94% 29.85 in 10.0 mi NW 8.1 mph - N/A   Overcast
7:14 AM 27.3 °F 19.1 °F 25.9 °F 94% 29.87 in 10.0 mi NW 8.1 mph - N/A   Overcast
7:35 AM 27.5 °F 19.3 °F 26.1 °F 94% 29.88 in 10.0 mi NW 8.1 mph - N/A   Overcast
7:55 AM 27.5 °F 22.2 °F 25.7 °F 93% 29.89 in 10.0 mi NW 4.6 mph - N/A   Overcast
8:14 AM 27.9 °F 21.5 °F 26.1 °F 93% 29.90 in 10.0 mi WNW 5.8 mph - N/A   Overcast
8:35 AM 28.2 °F 20.2 °F 26.4 °F 93% 29.90 in 10.0 mi WNW 8.1 mph - N/A   Overcast
8:55 AM 28.9 °F 21.9 °F 26.4 °F 90% 29.90 in 10.0 mi WNW 6.9 mph - N/A   Overcast
9:14 AM 29.1 °F 20.6 °F 26.6 °F 90% 29.91 in 10.0 mi WNW 9.2 mph - N/A   Overcast
9:35 AM 29.7 °F 21.3 °F 27.1 °F 90% 29.91 in 10.0 mi West 9.2 mph - N/A   Overcast
9:54 AM 30.2 °F 21.3 °F 27.5 °F 90% 29.92 in 10.0 mi West 10.4 mph - N/A   Overcast
10:14 AM 30.2 °F 21.9 °F 27.5 °F 90% 29.93 in 10.0 mi West 9.2 mph 18.4 mph N/A   Overcast
10:35 AM 30.0 °F 20.5 °F 27.5 °F 90% 29.94 in 10.0 mi WNW 11.5 mph 18.4 mph N/A   Overcast
10:54 AM 29.7 °F 19.6 °F 26.8 °F 89% 29.95 in 5.0 mi West 12.7 mph 17.3 mph N/A   Overcast
11:15 AM 27.5 °F 16.8 °F 23.9 °F 86% 29.97 in 10.0 mi West 12.7 mph 24.2 mph N/A   Overcast
11:35 AM 27.1 °F 14.5 °F 23.0 °F 84% 29.99 in 7.0 mi WNW 17.3 mph 20.7 mph N/A Snow Light Snow
11:54 AM 25.5 °F 13.8 °F 20.5 °F 81% 30.00 in 5.0 mi WNW 13.8 mph 21.9 mph N/A Snow Light Snow
12:15 PM 25.5 °F 14.3 °F 19.2 °F 77% 30.01 in 7.0 mi WNW 12.7 mph 23.0 mph N/A Snow Light Snow
12:34 PM 26.1 °F 14.5 °F 18.3 °F 73% 30.02 in 10.0 mi West 13.8 mph 18.4 mph N/A   Overcast
12:54 PM 26.8 °F 15.9 °F 17.1 °F 67% 30.03 in 10.0 mi NW 12.7 mph 20.7 mph N/A   Overcast
1:15 PM 25.9 °F 14.8 °F 15.6 °F 65% 30.04 in 10.0 mi WNW 12.7 mph 25.3 mph N/A   Mostly Cloudy
1:34 PM 25.5 °F 12.9 °F 14.9 °F 64% 30.05 in 10.0 mi West 16.1 mph 24.2 mph N/A   Mostly Cloudy
1:55 PM 25.5 °F 12.9 °F 14.4 °F 63% 30.06 in 10.0 mi West 16.1 mph 23.0 mph N/A   Overcast
2:14 PM 25.7 °F 15.1 °F 13.6 °F 60% 30.06 in 10.0 mi WNW 11.5 mph 20.7 mph N/A   Mostly Cloudy
2:34 PM 25.7 °F 12.7 °F 13.1 °F 59% 30.07 in 10.0 mi WNW 17.3 mph 25.3 mph N/A   Mostly Cloudy
2:55 PM 24.6 °F 12.2 °F 11.7 °F 58% 30.07 in 10.0 mi NW 15.0 mph 20.7 mph N/A   Mostly Cloudy
3:14 PM 23.9 °F 10.8 °F 11.3 °F 59% 30.08 in 10.0 mi NW 16.1 mph 25.3 mph N/A   Mostly Cloudy
3:35 PM 22.8 °F 8.5 °F 9.7 °F 57% 30.08 in 10.0 mi NW 18.4 mph 26.5 mph N/A   Scattered Clouds
3:55 PM 23.0 °F 10.1 °F 10.2 °F 58% 30.09 in 10.0 mi WNW 15.0 mph 23.0 mph N/A   Clear
4:14 PM 23.5 °F 9.9 °F 10.2 °F 57% 30.09 in 10.0 mi NW 17.3 mph 23.0 mph N/A   Scattered Clouds
4:35 PM 22.6 °F 8.3 °F 10.0 °F 59% 30.10 in 10.0 mi NW 18.4 mph 23.0 mph N/A   Scattered Clouds
4:55 PM 21.6 °F 8.2 °F 9.1 °F 59% 30.10 in 10.0 mi WNW 15.0 mph 24.2 mph N/A   Scattered Clouds
5:14 PM 21.2 °F 8.3 °F 9.1 °F 60% 30.11 in 10.0 mi NW 13.8 mph 21.9 mph N/A   Clear
5:35 PM 21.2 °F 7.8 °F 9.5 °F 61% 30.12 in 10.0 mi WNW 15.0 mph 25.3 mph N/A   Mostly Cloudy
5:54 PM 21.6 °F 8.2 °F 9.3 °F 59% 30.13 in 10.0 mi WNW 15.0 mph 27.6 mph N/A   Overcast
6:14 PM 21.6 °F 6.9 °F 8.8 °F 58% 30.13 in 10.0 mi WNW 18.4 mph 26.5 mph N/A   Overcast
6:34 PM 20.7 °F 10.2 °F 8.4 °F 59% 30.14 in 10.0 mi NW 9.2 mph 19.6 mph N/A   Overcast
6:54 PM 19.6 °F 6.2 °F 8.4 °F 62% 30.15 in 10.0 mi NW 13.8 mph 24.2 mph N/A   Mostly Cloudy
7:15 PM 19.0 °F 5.6 °F 7.7 °F 61% 30.16 in 10.0 mi WNW 13.8 mph 21.9 mph N/A   Scattered Clouds
7:34 PM 18.3 °F 5.2 °F 7.5 °F 63% 30.17 in 10.0 mi WNW 12.7 mph 23.0 mph N/A   Mostly Cloudy
7:55 PM 17.4 °F 4.1 °F 7.7 °F 66% 30.18 in 10.0 mi NW 12.7 mph 23.0 mph N/A   Overcast
8:15 PM 16.5 °F 4.3 °F 7.3 °F 67% 30.20 in 10.0 mi NW 10.4 mph 20.7 mph N/A   Overcast
8:34 PM 15.8 °F 1.4 °F 6.6 °F 67% 30.22 in 10.0 mi WNW 13.8 mph 24.2 mph N/A   Overcast
8:55 PM 15.4 °F 3.0 °F 6.8 °F 69% 30.23 in 10.0 mi NW 10.4 mph 21.9 mph N/A   Overcast
9:15 PM 14.9 °F 1.6 °F 6.6 °F 70% 30.24 in 10.0 mi WNW 11.5 mph 19.6 mph N/A   Overcast
9:34 PM 14.0 °F 0.5 °F 5.5 °F 69% 30.25 in 10.0 mi NW 11.5 mph 19.6 mph N/A   Overcast
9:55 PM 13.1 °F -2.6 °F 5.9 °F 73% 30.26 in 10.0 mi NW 15.0 mph 24.2 mph N/A   Overcast
10:14 PM 12.9 °F -2.8 °F 5.9 °F 74% 30.27 in 10.0 mi NNW 15.0 mph 24.2 mph N/A   Overcast
10:34 PM 12.7 °F -1.8 °F 6.6 °F 77% 30.27 in 10.0 mi NW 12.7 mph 20.7 mph N/A   Overcast
10:55 PM 11.8 °F -3.0 °F 5.4 °F 75% 30.29 in 10.0 mi West 12.7 mph 17.3 mph N/A   Overcast
11:14 PM 11.1 °F -2.4 °F 4.1 °F 73% 30.29 in 10.0 mi WNW 10.4 mph - N/A   Overcast
11:35 PM 10.4 °F -3.3 °F 4.1 °F 76% 30.29 in 7.0 mi WNW 10.4 mph 16.1 mph N/A Snow Light Snow
11:55 PM 10.4 °F -3.3 °F 4.5 °F 77% 30.30 in 7.0 mi West 10.4 mph - N/A Snow Light Snow